Regional Weather Roundup
Issued by NWS

Home | Current Version | Previous Version | Text Only | Print | Product List | Glossary On
Versions: 1 2 3 4 5 6 7 8 9 10 11 12 13 14 15 16 17 18 19 20 21 22 23 24 25 26 27 28 29 30 31 32 33 34 35 36 37 38 39 40 41 42 43 44 45 46 47 48 49 50
000
ASUS43 KFSD 240510
RWRSD

WEATHER ROUNDUP FOR SOUTH DAKOTA
NATIONAL WEATHER SERVICE SIOUX FALLS SD
1200 AM CDT TUE APR 24 2018

NOTE: "FAIR" INDICATES FEW OR NO CLOUDS BELOW 12,000 FEET WITH NO
SIGNIFICANT WEATHER AND/OR OBSTRUCTIONS TO VISIBILITY.


SDZ001>005-009-010-012>017-240600-
NORTHWEST AND NORTH CENTRAL SOUTH DAKOTA

CITY           SKY/WX    TMP DP  RH WIND       PRES   REMARKS
BUFFALO          N/A     35  32  88 N23       30.24R WCI  23
FAITH            N/A     43  42  97 N26G35    30.13R
MOBRIDGE       CLOUDY    53  39  59 N16       30.13R
$$

SDZ012>016-024>037-041>051-057-063-072>074-240600-
SOUTHWEST AND SOUTH CENTRAL SOUTH DAKOTA

CITY           SKY/WX    TMP DP  RH WIND       PRES   REMARKS
RAPID CTY ARPT CLOUDY    38  31  76 NW38G48   30.21R
PIERRE         LGT RAIN  57  42  57 SE10      30.06R
CUSTER         CLOUDY    32  24  72 NW14G24   30.20R WCI  22
PHILIP         CLOUDY    48  46  93 W16       30.10S
PINE RIDGE     CLOUDY    40  38  93 W8        30.22R
SPEARFISH      MIX PCPN  32  32 100 NW13G20   30.33R WCI  22
WINNER         MOCLDY    58  38  47 SE15      30.07F
$$

SDZ004>011-016>023-039-040-240600-
NORTHEAST SOUTH DAKOTA

CITY           SKY/WX    TMP DP  RH WIND       PRES   REMARKS
ABERDEEN       CLOUDY    55  44  66 NE14      30.14S
WATERTOWN      CLOUDY    54  40  59 SE6       30.14S
BROOKINGS      CLOUDY    52  42  69 SE8       30.14F
SISSETON         N/A     53  44  71 NW5       30.16S
$$

SDZ017-020-022-023-036>040-048>070-240600-
SOUTHEAST SOUTH DAKOTA

CITY           SKY/WX    TMP DP  RH WIND       PRES   REMARKS
SIOUX FALLS    MOCLDY    48  39  71 CALM      30.14S
HURON          CLOUDY    56  45  66 SE8       30.11S
CHAMBERLAIN    CLOUDY    57  45  63 SE10      30.08S
MITCHELL       CLOUDY    57  44  62 SE12      30.12S
YANKTON        CLEAR     50  39  66 NE7       30.13S
$$

ABBREVIATIONS USED IN REMARKS
   TC - TEMPERATURE IN CELSIUS
  WCI - WIND CHILL INDEX
   HX - HEAT INDEX
  VSB - VISIBILITY





USA.gov is the U.S. government's official web portal to all federal, state and local government web resources and services.